Theta_e
314 312 311 312 313 314 314 315 315 316 317 316 315 316 316 317 318 317 318 318 320 321 320 320 323 323 322 322 321 321 320 322 337 334 332 332 332 336 344 343 336 341 343 343
313 312 314 315 316 316 315 314 313 315 316 316 315 316 316 317 318 318 318 318 320 320 320 320 322 323 322 322 321 320 319 317 329 341 339 335 333 333 335 334 333 334 333 337
313 315 316 317 316 316 315 314 314 315 315 315 314 315 315 316 318 318 318 318 319 319 319 319 323 322 321 320 320 319 317 317 317 334 345 343 335 340 338 339 338 337 334 336
314 314 316 316 316 315 314 315 315 315 314 314 314 314 314 316 315 316 317 317 317 320 319 319 321 322 320 320 320 319 319 317 316 319 327 340 336 331 333 334 338 337 339 335
314 314 314 315 316 316 315 315 314 315 314 313 314 314 314 315 315 315 315 318 318 319 319 319 321 320 320 320 320 320 320 320 320 317 319 321 322 321 323 323 336 338 336 334
314 315 315 315 318 318 318 317 313 313 312 312 313 314 315 315 315 316 317 318 319 319 319 319 318 318 319 319 319 319 320 319 319 317 315 323 325 322 321 321 322 334 337 332
315 315 317 318 319 318 318 318 319 312 311 314 314 315 315 316 318 318 317 318 318 318 319 319 318 318 318 318 318 317 317 318 316 317 316 317 317 319 320 322 323 323 334 336
318 318 317 319 318 318 318 319 320 321 315 316 317 316 316 318 319 318 318 318 319 319 319 319 319 318 318 318 317 317 318 320 321 321 317 321 323 318 318 320 316 318 325 333
316 317 317 318 317 316 318 320 318 319 318 320 318 317 317 317 318 319 317 317 317 316 315 319 319 318 319 318 318 318 319 322 323 323 323 322 321 319 318 315 315 318 317 316
316 317 317 317 317 316 317 316 318 319 321 321 318 317 316 318 318 317 317 316 316 317 317 317 317 316 316 317 318 318 319 319 319 319 321 321 321 324 326 328 329 328 325 321
316 317 317 315 315 314 313 316 317 317 319 321 321 316 318 317 316 317 317 317 316 317 317 316 316 316 316 316 316 316 317 318 319 320 320 320 320 320 321 325 329 329 328 329
317 316 317 317 314 314 315 315 316 317 320 318 319 317 316 317 316 316 316 316 316 317 317 316 316 316 317 317 317 317 318 319 320 318 318 320 320 320 319 319 320 322 324 325
315 313 311 311 311 314 314 315 313 314 315 317 319 314 316 317 317 316 315 316 316 316 316 316 316 317 317 317 317 317 317 317 316 316 316 320 319 319 318 317 319 320 322 322
312 311 311 311 311 311 315 316 314 314 313 313 316 315 314 317 316 315 315 316 316 316 316 315 316 317 317 317 317 317 317 317 316 316 316 316 316 316 316 316 316 316 316 317
310 312 312 313 313 312 312 312 311 313 314 315 314 316 314 313 315 314 315 316 315 315 316 315 316 317 317 317 316 316 316 316 315 315 315 316 315 315 315 315 315 315 314 314
310 311 312 313 312 312 313 313 313 314 314 314 315 315 314 314 315 314 314 317 315 315 315 318 316 316 317 317 317 317 317 317 317 316 315 315 315 314 315 315 315 314 314 313
309 310 311 311 312 312 312 311 315 313 314 315 315 313 314 314 314 314 315 317 315 315 316 316 315 315 315 315 315 315 314 314 315 315 315 314 314 314 314 314 314 313 312 312
309 310 310 311 311 314 311 314 316 318 316 316 316 317 315 315 315 314 315 314 313 314 314 314 314 314 314 314 313 313 313 313 312 312 312 312 313 313 313 312 312 312 314 314
309 310 310 308 309 313 313 316 317 316 316 315 315 314 313 313 312 312 315 313 313 313 313 313 313 312 312 312 312 311 312 313 312 312 311 311 311 310 310 311 311 311 311 310
313 311 309 309 311 310 316 315 313 315 314 313 313 313 312 311 311 310 312 310 310 311 311 311 311 311 311 311 311 312 312 312 311 311 311 310 310 310 310 311 311 311 312 313
314 313 313 313 311 313 314 314 312 315 315 311 310 310 310 311 310 310 309 309 309 310 310 310 309 309 309 310 311 312 312 312 311 310 310 310 310 310 309 309 310 310 309 310
315 315 316 314 316 317 311 311 312 311 310 309 308 307 308 308 308 307 308 309 308 308 307 307 306 306 307 308 309 309 309 309 309 309 309 309 309 310 310 311 311 312 311 310
314 314 314 314 311 312 308 308 308 308 308 307 307 307 307 307 307 306 307 306 305 306 306 305 305 306 306 306 306 307 308 308 308 309 310 309 311 311 311 311 312 313 313 313
312 310 310 308 311 308 306 307 306 307 306 306 306 306 307 305 304 304 304 303 305 304 304 304 305 305 306 307 308 308 308 308 309 310 310 311 312 312 313 312 313 313 313 314
310 310 308 307 308 306 307 305 305 304 305 306 306 306 305 304 303 303 302 302 303 302 302 303 305 304 305 306 306 306 307 307 308 309 310 312 312 313 315 316 316 316 315 316
309 308 308 307 306 305 305 304 304 305 306 306 305 304 300 302 301 302 301 301 301 301 301 302 302 302 303 305 306 305 306 307 309 310 310 311 313 314 315 315 315 316 317 319
Wind_Speed
16 4 6 13 13 15 15 14 16 17 13 7 10 10 10 15 9 10 17 22 26 21 13 11 11 27 29 25 25 24 21 21 29 32 32 26 20 36 37 38 29 29 23 21
6 10 14 15 17 14 13 13 16 14 11 13 15 16 12 7 4 7 15 20 20 17 15 13 13 28 24 22 19 21 23 19 25 29 33 33 34 27 27 30 29 19 22 31
8 9 16 17 13 13 11 8 10 12 10 15 15 14 11 7 7 11 24 29 25 31 28 23 25 26 21 17 14 16 16 17 15 26 28 32 27 30 32 26 20 19 18 15
9 12 15 15 12 14 16 7 12 16 13 6 6 12 9 7 8 10 25 34 32 32 31 32 31 30 23 19 16 13 16 17 19 18 24 33 32 28 28 28 29 26 21 25
12 13 14 15 15 17 15 10 11 15 7 4 8 6 8 7 12 12 12 32 37 26 29 33 27 27 19 13 12 8 12 18 17 20 24 23 23 22 19 20 29 36 32 31
13 23 13 11 13 10 18 21 8 6 2 4 13 8 14 10 8 8 17 23 35 24 23 22 20 17 15 12 12 15 15 20 19 16 19 26 24 25 26 20 18 23 37 39
18 18 5 10 5 10 12 9 6 7 4 10 16 11 11 11 15 13 23 36 28 29 28 22 20 17 11 13 15 15 12 16 16 14 15 16 22 27 26 28 28 26 24 32
6 7 8 4 4 4 1 6 4 7 3 6 14 15 16 7 13 18 22 18 32 28 22 22 19 16 17 18 18 21 17 13 8 9 12 13 12 13 19 26 24 27 30 27
5 8 12 4 7 3 5 5 12 9 5 6 6 18 8 9 13 4 19 9 18 22 19 23 20 19 17 21 23 21 15 12 9 9 11 8 8 12 14 13 18 21 23 29
7 6 3 7 6 8 4 3 2 2 4 5 4 8 6 8 6 15 8 14 16 13 20 17 13 10 8 14 14 15 17 19 19 20 15 12 11 10 9 10 13 14 16 18
3 3 2 5 4 6 1 2 2 3 2 4 2 4 4 5 7 4 18 17 15 20 17 15 12 11 14 15 20 20 20 20 18 18 18 16 16 15 13 14 14 16 18 18
3 4 2 6 10 12 6 3 6 2 3 4 2 7 8 3 3 9 15 13 24 16 19 14 14 21 19 16 14 11 14 16 17 14 12 18 19 15 18 19 20 21 23 25
6 2 4 7 4 2 2 3 4 4 4 5 5 4 4 7 5 6 8 13 20 27 14 19 14 24 22 24 20 19 14 13 14 14 15 11 13 15 17 19 20 21 22 26
6 2 5 6 10 8 2 8 8 7 3 5 8 12 19 11 7 7 18 19 28 33 24 24 17 18 25 22 21 21 21 20 17 18 19 17 16 17 20 24 27 29 30 33
5 5 7 10 14 15 15 17 17 11 15 8 15 14 15 13 10 15 26 30 24 26 27 24 14 14 19 15 24 23 25 24 23 24 25 26 24 23 20 21 27 33 33 31
5 4 6 8 10 15 18 16 16 15 17 11 9 11 10 23 14 19 18 20 14 18 12 8 17 14 17 9 8 7 12 13 15 15 17 21 26 29 30 31 32 33 35 36
4 3 4 6 9 15 9 7 10 5 4 2 4 5 11 12 7 12 13 12 12 17 13 9 7 8 14 17 19 18 16 18 19 21 23 23 26 32 37 39 39 40 39 40
5 5 2 4 6 4 6 12 7 8 8 9 5 11 2 7 16 17 7 12 13 14 13 16 14 20 24 24 26 21 20 24 28 31 33 34 32 32 35 38 42 44 37 38
9 3 2 1 3 10 8 7 10 4 3 11 14 14 13 16 23 15 8 15 15 17 20 20 25 28 32 32 32 31 27 29 31 35 35 33 36 43 41 44 49 52 51 52
6 7 4 2 3 3 7 13 20 7 5 17 15 13 14 15 9 6 22 33 28 24 24 27 30 31 34 36 35 34 35 37 41 38 37 43 42 41 40 38 39 39 36 41
2 2 5 5 5 6 12 13 16 3 6 22 25 23 24 10 12 29 34 31 29 29 26 24 30 34 36 35 33 36 36 34 31 29 36 38 40 42 44 43 46 48 43 44
4 3 2 4 4 3 15 6 6 7 15 21 23 27 29 29 33 36 37 35 36 36 37 38 42 43 39 36 36 40 38 36 39 38 40 42 41 39 35 35 34 32 32 40
3 4 3 3 4 5 14 10 9 18 22 24 30 32 32 31 34 36 40 41 45 42 39 38 35 33 34 35 35 38 36 34 35 33 36 37 33 33 32 32 32 32 32 34
3 15 3 6 3 9 25 14 28 25 31 34 34 34 29 32 39 46 42 43 34 39 38 38 35 33 33 29 27 29 30 31 32 31 36 31 30 31 29 30 31 31 35 36
3 5 6 6 8 25 7 26 28 35 37 38 40 29 41 44 41 41 37 39 38 38 35 33 29 31 34 34 36 37 35 32 30 31 32 31 32 32 31 28 28 32 38 37
2 1 1 5 19 14 23 33 40 39 39 42 36 38 44 39 40 38 40 38 36 36 35 34 34 35 34 32 34 37 32 28 28 30 35 33 30 31 29 29 29 29 33 33
Wind_Direction
277 235 232 241 233 235 246 263 274 280 289 319 297 289 303 217 213 256 270 265 251 216 224 245 215 210 203 207 214 222 230 223 222 224 216 203 226 221 220 214 228 222 227 237
267 244 246 252 259 257 262 272 287 293 315 313 304 292 280 273 232 257 283 284 222 219 232 222 210 195 194 199 204 218 228 226 224 226 225 221 215 224 225 222 213 219 234 232
253 265 280 278 276 288 268 257 288 281 282 281 287 288 285 257 214 270 280 270 250 217 211 209 189 190 188 199 207 220 233 235 234 224 225 230 225 221 235 240 233 226 236 244
252 269 279 287 296 291 287 287 295 288 288 259 273 276 279 288 238 232 244 254 259 233 213 208 198 195 192 195 215 229 236 239 243 238 228 231 232 227 234 253 252 241 233 235
271 288 292 297 296 300 285 249 260 274 277 347 302 294 279 258 275 269 272 249 245 219 200 212 189 167 173 174 175 192 243 260 263 247 234 227 233 234 227 239 248 249 247 240
261 272 274 289 331 353 329 339 270 264 212 274 261 256 279 278 265 307 291 256 235 181 160 162 166 166 159 178 206 216 234 249 259 245 237 233 230 246 251 259 261 246 239 248
238 241 294 345 333 320 352 350 330 280 258 246 254 255 240 251 303 301 296 269 189 157 149 146 166 175 199 224 225 229 241 243 239 249 244 244 243 242 244 246 247 248 240 233
297 314 280 156 200 180 290 155 184 275 247 285 318 250 252 211 240 294 298 166 144 140 147 158 170 196 213 209 213 215 222 225 237 272 259 251 258 254 246 237 241 245 235 233
355 294 322 241 107 230 216 167 206 239 261 282 278 288 302 242 262 289 336 143 147 150 159 173 170 158 164 193 208 207 201 190 225 247 262 275 284 272 262 254 251 250 240 240
338 322 304 345 173 229 213 32 339 117 228 236 238 282 274 23 341 286 291 274 130 133 132 143 149 157 176 194 197 210 228 245 252 245 243 257 271 276 270 261 256 260 261 259
126 98 336 345 236 294 257 27 351 301 189 251 264 250 109 30 17 304 276 326 176 162 167 159 166 205 225 231 230 226 230 235 231 221 236 258 244 256 263 266 267 274 278 273
76 142 244 231 281 50 47 152 147 153 335 294 103 253 340 341 3 329 355 298 340 171 170 189 226 215 207 218 212 213 216 214 218 223 249 246 239 250 257 262 267 269 270 273
162 260 329 325 290 359 122 219 175 175 177 234 253 275 288 284 254 264 327 338 289 309 328 326 321 217 227 218 216 213 219 221 229 236 242 233 235 244 257 261 263 265 268 269
117 201 215 247 258 268 223 235 217 166 162 221 231 267 274 255 209 236 260 231 253 274 272 300 307 331 215 208 214 222 219 220 224 234 247 261 263 266 266 266 267 269 273 276
145 220 265 288 298 297 294 289 286 240 228 225 262 242 244 229 225 232 228 234 234 242 256 285 297 330 284 265 242 230 232 238 246 245 238 242 249 252 261 269 272 274 279 280
333 294 303 293 313 300 290 290 283 278 280 289 336 320 15 347 323 16 14 344 272 257 263 326 355 331 353 310 215 170 186 188 197 217 235 245 249 253 258 262 267 272 278 284
292 319 338 283 311 323 308 304 321 268 320 135 290 279 360 337 352 326 9 54 18 345 349 333 338 342 245 287 289 277 281 276 261 254 255 261 264 265 265 268 270 274 278 280
246 278 272 290 327 247 253 15 24 8 334 38 309 12 268 279 293 319 91 37 8 341 319 315 309 298 290 289 288 295 288 280 279 277 270 264 260 260 263 264 267 271 272 276
196 162 28 226 266 286 295 16 9 10 10 30 357 342 339 344 331 335 18 4 337 315 306 305 297 292 296 290 289 291 280 272 273 271 270 271 275 277 273 270 265 262 263 270
57 113 133 292 269 258 33 1 339 287 248 360 343 328 332 340 312 289 315 314 305 298 293 291 289 286 282 282 285 283 275 272 271 269 271 279 278 274 268 263 260 261 259 261
46 42 215 215 242 277 8 353 333 19 317 346 344 341 330 315 299 305 307 302 301 304 293 279 278 281 284 280 278 271 268 260 262 267 270 268 273 272 272 268 262 263 263 254
166 209 210 233 236 286 8 16 359 271 311 324 326 319 309 306 306 305 301 297 300 295 290 290 288 284 279 272 268 269 271 273 274 274 269 271 275 273 270 262 264 264 261 249
91 169 214 233 260 77 5 312 332 334 328 321 312 308 301 300 304 305 303 298 295 290 291 293 287 281 278 275 272 269 271 273 271 264 268 275 274 272 265 262 261 255 256 254
330 33 54 350 342 359 334 330 331 328 319 312 309 308 304 310 307 302 293 297 285 291 290 289 282 279 281 282 270 264 266 268 271 269 275 274 272 271 265 259 258 253 250 253
6 355 337 267 278 336 294 319 316 318 316 310 309 308 304 303 300 295 298 294 290 291 288 285 276 280 279 275 276 275 275 273 269 269 270 268 268 267 267 262 258 250 246 248
327 359 280 278 307 294 293 305 319 308 312 310 324 317 316 302 303 294 296 295 292 289 287 282 278 279 277 272 271 274 272 265 263 261 263 264 259 258 260 261 259 256 255 255